This demonstration page uses our WeatherBlox Daily Observations layout. Learn more.

Left ArrowRight Arrow

Hourly Observations for July 29, 2017

Temp ( °F °C ) Dew Point ( °F °C ) Humidity (%) Winds ( mph kmh ) Pressure ( in mb ) Visibility ( mi km ) Precip ( " mm )
12:53 am 00:53 Clear 78 25.6 51 10.6 39 39 undefined N/A 29.83 1010 10 16 0.00 0.00
1:53 am 01:53 Clear 76 24.4 51 10.6 42 42 NW 3 6 29.84 1011 10 16 0.00 0.00
2:53 am 02:53 Clear 73 22.8 53 11.7 50 50 NW 3 6 29.85 1011 10 16 0.00 0.00
3:53 am 03:53 Clear 73 22.8 55 12.8 53 53 Calm 29.85 1011 10 16 0.00 0.00
4:53 am 04:53 Clear 71 21.7 54 12.2 55 55 Calm 29.87 1012 10 16 0.00 0.00
5:53 am 05:53 Clear 69 20.6 54 12.2 59 59 Calm 29.88 1012 10 16 0.00 0.00
6:53 am 06:53 Sunny 69 20.6 55 12.8 61 61 Calm 29.89 1012 10 16 0.00 0.00
7:53 am 07:53 Sunny 77 25 55 12.8 47 47 Calm 29.90 1013 10 16 0.00 0.00
8:53 am 08:53 Sunny 80 26.7 57 13.9 45 45 Calm 29.90 1013 10 16 0.00 0.00
9:53 am 09:53 Sunny 88 31.1 55 12.8 33 33 Calm 29.89 1012 10 16 0.00 0.00
10:53 am 10:53 Sunny 91 32.8 56 13.3 31 31 S 3 6 29.90 1012 10 16 0.00 0.00
11:53 am 11:53 Sunny 97 36.1 53 11.7 23 23 NNE 3 6 29.88 1012 10 16 0.00 0.00
12:53 pm 12:53 Sunny 100 37.8 46 7.8 16 16 W 6 9 29.87 1012 10 16 0.00 0.00
1:53 pm 13:53 Sunny 102 38.9 42 5.6 13 13 VRB 6 9 29.86 1011 10 16 0.00 0.00
2:53 pm 14:53 Sunny 104 40 40 4.4 11 11 SSE 8 13 29.85 1011 10 16 0.00 0.00
3:53 pm 15:53 Sunny 105 40.6 34 1.1 8 8 SW 7 11 29.83 1010 10 16 0.00 0.00
4:53 pm 16:53 Sunny 106 41.1 35 1.7 9 9 SSE 8 13 29.82 1010 10 16 0.00 0.00
5:53 pm 17:53 Sunny 103 39.4 48 8.9 16 16 SSE 16 26 29.82 1010 10 16 0.00 0.00
6:53 pm 18:53 Sunny 100 37.8 42 5.6 14 14 SSE 14 22 29.83 1010 10 16 0.00 0.00
7:53 pm 19:53 Sunny 96 35.6 29 -1.7 9 9 S 13 20 29.84 1010 10 16 0.00 0.00
8:53 pm 20:53 Clear 90 32.2 42 5.6 19 19 S 3 6 29.86 1011 10 16 0.00 0.00
9:53 pm 21:53 Clear 84 28.9 43 6.1 24 24 Calm 29.90 1012 10 16 0.00 0.00
10:53 pm 22:53 Clear 82 27.8 47 8.3 29 29 NNE 5 7 29.93 1013 10 16 0.00 0.00
11:53 pm 23:53 Clear 79 26.1 49 9.4 35 35 Calm 29.94 1014 10 16 0.00 0.00

Powered by AerisWeather